SL-16 DEB, 20627

Orbit data source: Space-Track

SL-16 DEB, 20627 is space debris in LEO originally from a launch on Tue, 22 May 1990 UTC launched from the Tyuratam Missile And Space Complex (TTMTR). Debris objects in space refer to the collection of defunct objects orbiting the Earth. Examples of debris include non-operational satellites, rocket bodies, and fragments generated from explosions, collisions, or faulty payload assembly.

Loading next visibility...
Identifier
20627, 1990-046D
Orbit
LEO
Country
Flag of CISCIS
Related business
Manufacturer
Yuzhnoe
Mission
Spacecraft
Bus & Motor
SEP MOTOR COVER, Unknown motor
Mass
~0 kg wet, ~1 kg dry
Launch date (UTC)
1990-05-22 (35 years ago)
Launch vehicle
Unknown
Launch site
Tyuratam Missile And Space Complex (TTMTR)
Object type
Payload
Rocket body
Debris
Shape & HBR
Unknown shape, 0.2 m
Radar Cross Section
Small (<0.1 m²)

Expand to show TLE details & history
Last TLE update: 12 hours ago

TLE from 12 hours ago
0 SL-16 DEB
1 20627U 90046D   25300.45197920  .00000096  00000-0  13359-3 0  9992
2 20627  70.9745 324.2427 0214952 258.5662 226.7764 13.70922969771762
Epoch: 2025-10-27T10:50Z
TLE epoch observation values (Epoch: 2025-10-27T10:50:51.002Z)
Latitude
52.06885°
Longitude
-80.63988°
Altitude
1,114.482 km
Speed
7.246 km/s
True Right ascension
07h 52m 30s
True Declination
51° 54' 36"
Sunlit
Object was in daylight at epoch
Visualization orbit readout
Latitude
Unknown
Longitude
Unknown
Altitude
Unknown
Speed
Unknown
Apparent Right ascension
Unknown
Apparent Declination
Unknown
Sunlit
N/A
Visualization observer readout
Local Sidereal Time
18:25:26
Azimuth
Unknown
Elevation
Unknown
Doppler factor
Unknown
Orbital elements
Apogee altitude
1,152.699 km
Perigee altitude
835.758 km
Semi-major axis
7,372.366 km
Eccentricity
0.0215
Inclination
70.9745°
RAAN
324.2427°
Arg. of periapsis
258.5662°
True anomaly
225.01425°
Mean anomaly
226.7764°
Eccentric anomaly
225.89209°
Mean motion
3.42873 °/min
Orbital period
105 mins
BSTAR
0.00013359
Loading maneuver chart data...
Computing Atmospheric mass density...
Loading historical data...
Loading historical data...
Loading historical data...
Loading historical data...
Loading historical data...
Loading historical data...
Loading historical data...
Other satellites on launch #46 in the year 1990 (1990-05-22 UTC)

Documentation

Showing up to 5 results
|